GW0323 Weather Reports


Display with metric or nautical units.
time (UTC)temp
F
wind
direction
speed
MPH
gust
MPH
rain 1hr
in
rain 24hr
in
rain mn
in
humidity
%
barometer
mb
20260906120018 65 131 1.0 3.0 0.00 0.00 0.00 97 1019.6
20260906115521 65 131 1.0 3.0 0.00 0.00 0.00 97 1019.5
20260906115026 65 131 0.0 5.0 0.00 0.00 0.00 97 1019.4
20260906114547 65 292 2.0 7.0 0.00 0.00 0.00 97 1019.3
20260906114013 65 342 1.0 7.0 0.00 0.00 0.00 97 1019.2
20260906113516 65 156 1.0 5.0 0.00 0.00 0.00 97 1019.2
20260906113019 65 156 2.0 5.0 0.00 0.00 0.00 97 1019.1
20260906112540 65 319 2.0 4.0 0.00 0.00 0.00 97 1019.1
20260906112023 65 304 2.0 4.0 0.00 0.00 0.00 97 1019.0
20260906111524 65 143 1.0 4.0 0.00 0.00 0.00 97 1019.0
20260906111026 65 35 2.0 4.0 0.00 0.00 0.00 97 1019.1
20260906110527 65 71 2.0 4.0 0.00 0.00 0.00 97 1019.1
20260906110033 65 331 1.0 3.0 0.00 0.00 0.00 97 1019.1
20260906105514 65 350 1.0 3.0 0.00 0.00 0.00 96 1019.2
20260906105018 65 340 0.0 4.0 0.00 0.00 0.00 96 1019.1
20260906104519 65 275 1.0 5.0 0.00 0.00 0.00 97 1019.1
20260906104021 65 28 2.0 5.0 0.00 0.00 0.00 96 1019.0
20260906103523 65 22 2.0 4.0 0.00 0.00 0.00 96 1019.0
20260906103028 65 22 2.0 3.0 0.00 0.00 0.00 96 1019.0
20260906102512 65 22 0.0 3.0 0.00 0.00 0.00 96 1019.1
20260906102017 65 22 1.0 3.0 0.00 0.00 0.00 96 1019.0
20260906101517 65 22 0.0 2.0 0.00 0.00 0.00 96 1018.9
20260906101036 65 22 0.0 4.0 0.00 0.00 0.00 96 1018.7
20260906100515 65 22 2.0 5.0 0.00 0.00 0.00 96 1018.6
20260906100017 65 22 1.0 5.0 0.00 0.00 0.00 96 1018.5
20260906095518 65 71 2.0 3.0 0.00 0.00 0.00 96 1018.5
20260906095023 65 325 2.0 5.0 0.00 0.00 0.00 96 1018.4
20260906094525 65 325 0.0 5.0 0.00 0.00 0.00 96 1018.3
20260906094029 65 326 0.0 4.0 0.00 0.00 0.00 96 1018.3
20260906093531 65 326 2.0 4.0 0.00 0.00 0.00 96 1018.2
20260906093017 66 259 2.0 3.0 0.00 0.00 0.00 96 1018.1
20260906092539 66 259 1.0 3.0 0.00 0.00 0.00 96 1018.1
20260906092021 66 317 1.0 3.0 0.00 0.00 0.00 96 1018.2
20260906091524 66 299 1.0 3.0 0.00 0.00 0.00 96 1018.4
20260906091027 66 307 1.0 3.0 0.00 0.00 0.00 96 1018.4
20260906090529 66 19 0.0 4.0 0.00 0.00 0.00 95 1018.3
20260906090013 66 19 2.0 5.0 0.00 0.00 0.00 95 1018.4
20260906085535 66 26 1.0 5.0 0.00 0.00 0.00 96 1018.4
20260906085016 66 338 3.0 4.0 0.00 0.00 0.00 96 1018.5
20260906084519 66 338 2.0 3.0 0.00 0.00 0.00 96 1018.5
20260906084023 67 338 1.0 4.0 0.00 0.00 0.00 96 1018.5
20260906083525 67 338 2.0 4.0 0.00 0.00 0.00 96 1018.5
20260906083030 67 338 2.0 4.0 0.00 0.00 0.00 96 1018.6
20260906082513 67 338 2.0 5.0 0.00 0.00 0.00 96 1018.7
20260906082017 67 338 1.0 4.0 0.00 0.00 0.00 96 1018.7
20260906081517 67 309 1.0 4.0 0.00 0.00 0.00 96 1018.6
20260906081022 67 323 2.0 4.0 0.00 0.00 0.00 96 1018.5
20260906080523 67 350 1.0 3.0 0.00 0.00 0.00 96 1018.6
20260906080030 67 40 0.0 4.0 0.00 0.00 0.00 96 1018.5
20260906075512 67 5 1.0 4.0 0.00 0.00 0.00 96 1018.6
20260906075017 67 360 2.0 5.0 0.00 0.00 0.00 96 1018.7
20260906074521 67 350 3.0 5.0 0.00 0.00 0.00 96 1018.8
20260906074025 67 13 2.0 4.0 0.00 0.00 0.00 96 1018.8
20260906073529 67 13 3.0 4.0 0.00 0.00 0.00 96 1018.7
20260906073014 67 13 2.0 5.0 0.00 0.00 0.00 96 1018.7
20260906072516 67 13 3.0 5.0 0.00 0.00 0.00 96 1018.6
20260906072020 67 60 2.0 3.0 0.00 0.00 0.00 96 1018.5
20260906071521 67 60 1.0 4.0 0.00 0.00 0.00 96 1018.6
20260906071024 67 60 2.0 4.0 0.00 0.00 0.00 97 1018.7
20260906070528 67 65 2.0 3.0 0.00 0.00 0.00 97 1018.9
20260906070013 67 65 2.0 4.0 0.00 0.00 0.00 97 1018.9
20260906065514 66 65 2.0 3.0 0.00 0.00 0.00 96 1019.1
20260906065041 66 65 0.0 1.0 0.00 0.00 0.00 96 1019.1
20260906064541 66 65 0.0 1.0 0.00 0.00 0.00 96 1019.0
20260906064024 66 65 0.0 1.0 0.00 0.00 0.00 96 1019.0
20260906063525 66 65 0.0 1.0 0.00 0.00 0.00 96 1019.1
20260906063026 67 65 0.0 2.0 0.00 0.00 0.00 96 1019.0
20260906062527 67 65 1.0 2.0 0.00 0.00 0.00 96 1019.0
20260906062032 67 65 0.0 1.0 0.00 0.00 0.00 96 1019.0
20260906061536 67 65 0.0 1.0 0.00 0.00 0.00 96 1019.0
20260906061021 67 65 0.0 0.0 0.00 0.00 0.00 96 1018.9
20260906060542 67 65 0.0 2.0 0.00 0.00 0.00 95 1018.9
20260906060048 67 65 1.0 2.0 0.00 0.00 0.00 96 1018.8
20260906055545 67 65 1.0 2.0 0.00 0.00 0.00 95 1018.8
20260906055027 67 65 1.0 2.0 0.00 0.00 0.00 95 1018.8
20260906054530 67 65 0.0 0.0 0.00 0.00 0.00 95 1018.8
20260906054015 67 65 0.0 0.0 0.00 0.00 0.00 95 1018.7
20260906053517 68 65 0.0 1.0 0.00 0.00 0.00 94 1018.7
20260906053021 68 65 0.0 2.0 0.00 0.00 0.00 94 1018.7
20260906052524 68 65 1.0 4.0 0.00 0.00 0.00 94 1018.7
20260906052029 68 65 1.0 4.0 0.00 0.00 0.00 95 1018.6
20260906051530 68 65 2.0 3.0 0.00 0.00 0.00 95 1018.6
20260906051014 68 65 2.0 2.0 0.00 0.00 0.00 95 1018.6
20260906050517 68 64 0.0 3.0 0.00 0.00 0.00 95 1018.7
20260906050020 68 64 1.0 3.0 0.00 0.00 0.00 95 1018.6
20260906045522 68 307 1.0 3.0 0.00 0.00 0.00 94 1018.5
20260906045028 69 307 1.0 3.0 0.00 0.00 0.00 94 1018.5
20260906044512 69 47 1.0 3.0 0.00 0.00 0.00 94 1018.5
20260906044015 68 47 0.0 2.0 0.00 0.00 0.00 94 1018.7
20260906043536 69 47 1.0 3.0 0.00 0.00 0.00 94 1018.7
20260906043020 69 47 1.0 3.0 0.00 0.00 0.00 94 1018.7
20260906042521 69 47 1.0 3.0 0.00 0.00 0.00 94 1018.8
20260906042025 69 47 2.0 3.0 0.00 0.00 0.00 93 1018.8
20260906041526 69 47 1.0 3.0 0.00 0.00 0.00 93 1018.8
20260906041031 69 47 2.0 2.0 0.00 0.00 0.00 93 1018.8
20260906040533 69 47 0.0 4.0 0.00 0.00 0.00 93 1018.8
20260906040018 70 47 2.0 4.0 0.00 0.00 0.00 94 1018.8
20260906035518 70 63 2.0 3.0 0.00 0.00 0.00 93 1018.8
20260906035043 70 63 1.0 3.0 0.00 0.00 0.00 93 1018.7
20260906034523 70 63 2.0 3.0 0.00 0.00 0.00 93 1018.5
20260906034030 70 63 2.0 2.0 0.00 0.00 0.00 93 1018.4
20260906033512 70 63 1.0 3.0 0.00 0.00 0.00 93 1018.4
20260906033017 70 63 2.0 3.0 0.00 0.00 0.00 93 1018.2
20260906032539 70 63 2.0 3.0 0.00 0.00 0.00 93 1018.2
20260906032023 70 63 2.0 3.0 0.00 0.00 0.00 92 1018.2
20260906031525 70 63 2.0 3.0 0.00 0.00 0.00 93 1018.1
20260906031029 70 63 2.0 3.0 0.00 0.00 0.00 92 1018.0
20260906030512 70 63 2.0 4.0 0.00 0.00 0.00 92 1018.0
20260906030037 70 63 2.0 4.0 0.00 0.00 0.00 92 1018.0
20260906025516 70 313 2.0 3.0 0.00 0.00 0.00 92 1017.9
20260906025021 70 313 0.0 2.0 0.00 0.00 0.00 91 1017.7
20260906024544 71 313 0.0 2.0 0.00 0.00 0.00 91 1017.6
20260906024048 71 313 0.0 2.0 0.00 0.00 0.00 91 1017.5
20260906023548 71 313 1.0 2.0 0.00 0.00 0.00 91 1017.6
20260906023030 71 313 1.0 2.0 0.00 0.00 0.00 90 1017.5
20260906022551 71 313 0.0 2.0 0.00 0.00 0.00 90 1017.5
20260906022015 71 313 1.0 2.0 0.00 0.00 0.00 90 1017.4
20260906021518 71 313 1.0 2.0 0.00 0.00 0.00 90 1017.2
20260906021022 71 313 0.0 2.0 0.00 0.00 0.00 90 1017.3
20260906020524 71 313 0.0 3.0 0.00 0.00 0.00 91 1017.1
20260906020029 71 313 2.0 3.0 0.00 0.00 0.00 92 1017.2
20260906015531 71 65 2.0 3.0 0.00 0.00 0.00 92 1017.1
20260906015014 71 65 1.0 2.0 0.00 0.00 0.00 92 1016.9
20260906014516 71 65 0.0 2.0 0.00 0.00 0.00 91 1016.7
20260906014021 71 65 0.0 3.0 0.00 0.00 0.00 91 1016.7
20260906013523 71 65 1.0 3.0 0.00 0.00 0.00 91 1016.6
20260906013029 71 65 1.0 2.0 0.00 0.00 0.00 92 1016.5
20260906012530 71 65 0.0 2.0 0.00 0.00 0.00 92 1016.4
20260906012015 71 65 0.0 2.0 0.00 0.00 0.00 90 1016.3
20260906011517 72 65 1.0 2.0 0.00 0.00 0.00 91 1016.1
20260906011023 72 65 1.0 2.0 0.00 0.00 0.00 90 1016.0
20260906010525 72 65 0.0 2.0 0.00 0.00 0.00 90 1016.0
20260906010029 72 65 1.0 2.0 0.00 0.00 0.00 90 1016.0
20260906005529 72 65 0.0 2.0 0.00 0.00 0.00 89 1015.9
20260906005016 73 65 1.0 2.0 0.00 0.00 0.00 89 1015.8
20260906004521 73 66 2.0 2.0 0.00 0.00 0.00 89 1015.8
20260906004025 73 65 1.0 2.0 0.00 0.00 0.00 88 1015.8
20260906003525 74 65 1.0 3.0 0.00 0.00 0.00 88 1015.9
20260906003030 74 65 2.0 3.0 0.00 0.00 0.00 87 1015.9
20260906002531 74 65 1.0 3.0 0.00 0.00 0.00 87 1015.9
20260906002035 74 350 1.0 2.0 0.00 0.00 0.00 87 1015.8
20260906001516 74 350 1.0 2.0 0.00 0.00 0.00 87 1015.6
20260906001019 74 350 0.0 3.0 0.00 0.00 0.00 87 1015.6
20260906000521 74 350 2.0 3.0 0.00 0.00 0.00 86 1015.6
20260906000024 75 350 2.0 3.0 0.00 0.00 0.00 86 1015.8
20260905235526 75 350 1.0 3.0 0.00 0.00 0.00 84 1015.8
20260905235029 76 350 1.0 3.0 0.00 0.00 0.00 83 1015.8
20260905234527 76 350 1.0 2.0 0.00 0.00 0.00 84 1016.0
20260905234012 76 350 1.0 4.0 0.00 0.00 0.00 83 1016.1
20260905233515 76 350 1.0 4.0 0.00 0.00 0.00 83 1015.9
20260905233041 76 350 1.0 3.0 0.00 0.00 0.00 83 1015.9
20260905232520 76 350 1.0 3.0 0.00 0.00 0.00 83 1015.9
20260905232025 76 350 2.0 3.0 0.00 0.00 0.00 83 1016.0
20260905231525 76 350 2.0 3.0 0.00 0.00 0.00 82 1016.1
20260905231029 76 350 1.0 3.0 0.00 0.00 0.00 81 1016.1
20260905230530 76 350 1.0 3.0 0.00 0.00 0.00 83 1016.2
20260905230014 76 350 1.0 3.0 0.00 0.00 0.00 81 1016.2
20260905225536 76 350 1.0 3.0 0.00 0.00 0.00 81 1016.3
20260905225018 76 350 1.0 4.0 0.00 0.00 0.00 81 1016.3
20260905224521 76 350 2.0 4.0 0.00 0.00 0.00 80 1016.3
20260905224027 76 323 1.0 3.0 0.00 0.00 0.00 79 1016.3
20260905223527 77 323 1.0 3.0 0.00 0.00 0.00 79 1016.4
20260905223033 77 323 2.0 4.0 0.00 0.00 0.00 79 1016.3
20260905222514 77 323 2.0 4.0 0.00 0.00 0.00 78 1016.4
20260905222019 77 323 2.0 3.0 0.00 0.00 0.00 79 1016.3
20260905221522 77 323 1.0 3.0 0.00 0.00 0.00 78 1016.3
20260905221026 77 282 1.0 4.0 0.00 0.00 0.00 78 1016.3
20260905220529 77 45 2.0 6.0 0.00 0.00 0.00 78 1016.4
20260905220052 77 350 2.0 6.0 0.00 0.00 0.00 78 1016.5
20260905215511 77 332 2.0 4.0 0.00 0.00 0.00 79 1016.5
20260905215013 77 24 2.0 8.0 0.00 0.00 0.00 77 1016.4
20260905214514 78 308 1.0 8.0 0.00 0.00 0.00 76 1016.5
20260905214017 78 9 2.0 8.0 0.00 0.00 0.00 77 1016.6
20260905213519 78 230 2.0 8.0 0.00 0.00 0.00 74 1016.6
20260905213023 79 279 2.0 8.0 0.00 0.00 0.00 74 1016.7
20260905212522 79 117 3.0 8.0 0.00 0.00 0.00 75 1016.8
20260905212047 79 134 2.0 8.0 0.00 0.00 0.00 76 1016.9
20260905211523 79 303 3.0 11.0 0.00 0.00 0.00 73 1016.8
20260905211026 79 52 5.0 10.0 0.00 0.00 0.00 74 1016.9
20260905210528 80 20 6.0 11.0 0.00 0.00 0.00 74 1016.8
20260905210013 79 350 3.0 11.0 0.00 0.00 0.00 77 1016.7
20260905205515 80 325 5.0 11.0 0.00 0.00 0.00 78 1016.7
20260905205018 79 18 3.0 11.0 0.00 0.00 0.00 74 1016.7
20260905204540 79 41 2.0 11.0 0.00 0.00 0.00 78 1016.7
20260905204024 80 35 5.0 11.0 0.00 0.00 0.00 78 1016.7
20260905203524 80 11 5.0 11.0 0.00 0.00 0.00 76 1016.6
20260905203028 80 247 3.0 13.0 0.00 0.00 0.00 79 1016.7
20260905202528 79 44 6.0 13.0 0.00 0.00 0.00 79 1016.7
20260905202032 79 344 4.0 12.0 0.00 0.00 0.00 78 1016.8
20260905201513 79 23 4.0 9.0 0.00 0.00 0.00 78 1016.8
20260905201014 80 325 4.0 10.0 0.00 0.00 0.00 78 1016.8
20260905200514 81 259 5.0 13.0 0.00 0.00 0.00 77 1016.7
20260905200019 80 44 4.0 13.0 0.00 0.00 0.00 77 1016.7
20260905195520 80 200 4.0 9.0 0.00 0.00 0.00 77 1016.7
20260905195025 80 294 2.0 9.0 0.00 0.00 0.00 79 1016.8
20260905194529 80 23 3.0 10.0 0.00 0.00 0.00 77 1016.8
20260905194013 81 344 7.0 10.0 0.00 0.00 0.00 80 1016.9
20260905193514 81 248 3.0 9.0 0.00 0.00 0.00 75 1016.9
20260905193018 81 137 4.0 9.0 0.00 0.00 0.00 78 1016.9
20260905192522 80 229 3.0 7.0 0.00 0.00 0.00 75 1016.9
20260905192028 80 78 3.0 8.0 0.00 0.00 0.00 79 1017.0
20260905191528 79 336 3.0 9.0 0.00 0.00 0.00 79 1017.1
20260905191013 79 71 3.0 8.0 0.00 0.00 0.00 79 1017.2
20260905190516 79 331 3.0 5.0 0.00 0.00 0.00 79 1017.2
20260905190021 79 338 2.0 10.0 0.00 0.00 0.00 78 1017.2
20260905185522 79 317 5.0 10.0 0.00 0.00 0.00 78 1017.2
20260905185025 80 87 4.0 10.0 0.00 0.00 0.00 77 1017.0
20260905184527 80 119 3.0 8.0 0.00 0.00 0.00 76 1016.8
20260905184013 80 98 4.0 8.0 0.00 0.00 0.00 77 1016.9
20260905183515 80 295 2.0 5.0 0.00 0.00 0.00 77 1016.9
20260905183021 80 306 3.0 8.0 0.00 0.00 0.00 80 1016.9
20260905182523 79 218 2.0 9.0 0.00 0.00 0.00 76 1016.9
20260905182027 79 350 4.0 9.0 0.00 0.00 0.00 76 1016.9
20260905181529 80 138 2.0 10.0 0.00 0.00 0.00 78 1017.0
20260905181015 79 145 4.0 10.0 0.00 0.00 0.00 80 1017.0
20260905180519 79 101 5.0 8.0 0.00 0.00 0.00 80 1017.0
20260905180043 79 226 2.0 5.0 0.00 0.00 0.00 79 1017.1
20260905175525 79 315 2.0 5.0 0.00 0.00 0.00 77 1017.2
20260905175031 79 317 2.0 5.0 0.00 0.00 0.00 76 1017.4
20260905174512 80 333 2.0 8.0 0.00 0.00 0.00 75 1017.3
20260905174016 80 331 3.0 8.0 0.00 0.00 0.00 76 1017.3
20260905173517 81 138 4.0 9.0 0.00 0.00 0.00 78 1017.3
20260905173041 80 173 6.0 10.0 0.00 0.00 0.00 81 1017.3
20260905172522 80 156 5.0 10.0 0.00 0.00 0.00 77 1017.3
20260905172026 79 167 1.0 5.0 0.00 0.00 0.00 81 1017.4
20260905171545 78 141 2.0 5.0 0.00 0.00 0.00 81 1017.4
20260905171030 79 192 1.0 6.0 0.00 0.00 0.00 81 1017.4
20260905170511 80 121 2.0 9.0 0.00 0.00 0.00 80 1017.4
20260905170016 79 20 3.0 9.0 0.00 0.00 0.00 78 1017.5
20260905165537 79 129 2.0 6.0 0.00 0.00 0.00 82 1017.5
20260905165040 78 126 2.0 8.0 0.00 0.00 0.00 82 1017.5
20260905164524 78 15 4.0 8.0 0.00 0.00 0.00 85 1017.5
20260905164030 77 55 1.0 10.0 0.00 0.00 0.00 86 1017.5
20260905163512 77 5 6.0 10.0 0.00 0.00 0.00 85 1017.5
20260905163038 77 301 3.0 7.0 0.00 0.00 0.00 84 1017.5
20260905162519 77 169 2.0 8.0 0.00 0.00 0.00 85 1017.5
20260905162024 77 15 4.0 8.0 0.00 0.00 0.00 86 1017.4
20260905161526 77 317 3.0 5.0 0.00 0.00 0.00 86 1017.4
20260905161032 76 102 1.0 6.0 0.00 0.00 0.00 86 1017.4
20260905160514 76 50 3.0 9.0 0.00 0.00 0.00 87 1017.4
20260905160020 76 324 4.0 9.0 0.00 0.00 0.00 87 1017.4
20260905155523 76 360 2.0 6.0 0.00 0.00 0.00 89 1017.4
20260905155045 76 5 2.0 4.0 0.00 0.00 0.00 89 1017.3
20260905154525 76 85 1.0 2.0 0.00 0.00 0.00 90 1017.3
20260905154050 75 85 1.0 3.0 0.00 0.00 0.00 88 1017.3
20260905153530 75 216 1.0 3.0 0.00 0.00 0.00 89 1017.4
20260905153014 75 321 1.0 3.0 0.00 0.00 0.00 89 1017.4
20260905152536 75 321 2.0 4.0 0.00 0.00 0.00 89 1017.3
20260905152019 74 321 2.0 5.0 0.00 0.00 0.00 90 1017.3
20260905151542 74 11 3.0 5.0 0.00 0.00 0.00 89 1017.3
20260905151028 74 343 2.0 5.0 0.00 0.00 0.00 89 1017.3
20260905150529 74 360 3.0 5.0 0.00 0.00 0.00 90 1017.2
20260905150014 74 122 1.0 4.0 0.00 0.00 0.00 90 1017.0
20260905145516 74 38 2.0 5.0 0.00 0.00 0.00 90 1017.0
20260905145022 74 350 2.0 5.0 0.00 0.00 0.00 90 1016.9
20260905144544 74 9 3.0 5.0 0.00 0.00 0.00 90 1016.9
20260905144027 74 360 3.0 4.0 0.00 0.00 0.00 90 1016.9
20260905143526 74 72 2.0 4.0 0.00 0.00 0.00 90 1016.9
20260905143031 74 65 3.0 4.0 0.00 0.00 0.00 90 1016.9
20260905142513 74 281 2.0 4.0 0.00 0.00 0.00 90 1016.8
20260905142018 74 88 2.0 4.0 0.00 0.00 0.00 90 1016.8
20260905141537 74 58 0.0 3.0 0.00 0.00 0.00 91 1016.7
20260905141023 74 58 2.0 3.0 0.00 0.00 0.00 91 1016.7
20260905140524 74 350 2.0 5.0 0.00 0.00 0.00 91 1016.6
20260905140030 74 31 2.0 5.0 0.00 0.00 0.00 92 1016.6
20260905135533 73 332 2.0 4.0 0.00 0.00 0.00 91 1016.5
20260905135017 73 330 2.0 5.0 0.00 0.00 0.00 92 1016.3
20260905134518 73 333 2.0 5.0 0.00 0.00 0.00 92 1016.4
20260905134045 73 311 3.0 8.0 0.00 0.00 0.00 92 1016.3
20260905133525 73 360 5.0 8.0 0.00 0.00 0.00 92 1016.1
20260905133052 73 306 3.0 6.0 0.00 0.00 0.00 92 1016.0
20260905132512 73 327 3.0 5.0 0.00 0.00 0.00 92 1016.0
20260905132037 73 312 1.0 5.0 0.00 0.00 0.00 92 1015.9
20260905131518 73 315 3.0 5.0 0.00 0.00 0.00 92 1015.8
20260905131022 73 350 3.0 4.0 0.00 0.00 0.00 92 1015.8
20260905130525 73 350 1.0 3.0 0.00 0.00 0.00 92 1015.6
20260905130031 73 80 1.0 4.0 0.00 0.00 0.00 92 1015.9
20260905125513 72 80 1.0 5.0 0.00 0.00 0.00 92 1015.9
20260905125017 72 325 2.0 7.0 0.00 0.00 0.00 93 1015.9
20260905124519 72 137 2.0 7.0 0.00 0.00 0.00 93 1015.9
20260905124024 72 235 2.0 5.0 0.00 0.00 0.00 93 1015.8
20260905123525 72 308 3.0 5.0 0.00 0.00 0.00 93 1015.6
20260905123031 72 346 1.0 3.0 0.00 0.00 0.00 93 1015.6
20260905122512 72 266 1.0 2.0 0.00 0.00 0.00 94 1015.6
20260905122017 71 266 0.0 2.0 0.00 0.00 0.00 94 1015.4
20260905121519 71 266 0.0 4.0 0.00 0.00 0.00 95 1015.5
20260905121025 71 266 1.0 4.0 0.00 0.00 0.00 95 1015.5
20260905120526 71 69 1.0 3.0 0.00 0.00 0.00 95 1015.5
20260905120029 71 69 0.0 1.0 0.00 0.00 0.00 96 1015.5